Weather History for Douglas, WY

Change the Weather History Date:

Friday, December 16, 2011

  Actual Average Record
Temperature  
Mean Temperature 27 °F 24 °F  
Max Temperature 39 °F 37 °F 56 °F (2002)
Min Temperature 14 °F 10 °F -10 °F (2008)
Degree Days  
Heating Degree Days 38 42  
Month to date heating degree days 723 647  
Since 1 July heating degree days 2349 2469  
Cooling Degree Days 0 0  
Month to date cooling degree days 0 0  
Year to date cooling degree days 641 486  
Moisture  
Dew Point 14 °F    
Average Humidity 59    
Maximum Humidity 80    
Minimum Humidity 37    
Precipitation  
Precipitation 0.00 in 0.01 in 0.28 in (1975)
Month to date precipitation T 0.22  
Year to date precipitation 13.18 13.21  
Sea Level Pressure  
Sea Level Pressure 30.41 in    
Wind  
Wind Speed 7 mph (NW)    
Max Wind Speed 22 mph    
Max Gust Speed 25 mph    
Visibility 10 miles    
Events      
T = Trace of Precipitation, MM = Missing Value Source: NWS Daily Summary

Daily Weather History Graph

Daily Weather History Graph

Search for Another Location

Airport:

Trip Planner

Search our weather history database for the weather conditions in past years. The results will help you decide how hot, cold, wet, or windy it might be!

Date:

Astronomy

Dec. 16, 2011 Rise Set
Actual Time 7:25 AM MST 4:28 PM MST
Civil Twilight 6:53 AM MST 5:00 PM MST
Nautical Twilight 6:17 AM MST 5:36 PM MST
Astronomical Twilight 5:43 AM MST 6:10 PM MST
Moon 11:13 PM MST (12/16) 11:05 AM MST (12/16)
Length of Visible Light 10h 07m
Length of Day
9h 02m
Waning Gibbous, 64% of the Moon is Illuminated
Dec 16
Waning Gibbous
Dec 17
Last Quarter
Dec 24
New
Dec 31
First Quarter
Jan 9
Full

Hourly Weather History & Observations

Time (MST) Temp. Windchill Dew Point Humidity Pressure Visibility Wind Dir Wind Speed Gust Speed Precip Events Conditions
12:53 AM 25.0 °F 15.5 °F 16.0 °F 69% 30.29 in 10.0 mi NW 9.2 mph - N/A   Clear
1:53 AM 23.0 °F 13.9 °F 15.1 °F 72% 30.31 in 10.0 mi NNW 8.1 mph - N/A   Clear
3:53 AM 19.9 °F 10.1 °F 12.9 °F 74% 30.34 in 10.0 mi NNW 8.1 mph - N/A   Clear
4:53 AM 18.0 °F 8.7 °F 12.0 °F 78% 30.40 in 10.0 mi NW 6.9 mph - N/A   Clear
5:53 AM 19.0 °F 8.2 °F 12.0 °F 74% 30.44 in 10.0 mi NNW 9.2 mph - N/A   Partly Cloudy
6:53 AM 17.1 °F 7.6 °F 10.9 °F 77% 30.47 in 10.0 mi NNW 6.9 mph - N/A   Clear
7:53 AM 15.1 °F 6.4 °F 10.0 °F 80% 30.49 in 10.0 mi North 5.8 mph - N/A   Clear
8:53 AM 19.0 °F - 12.9 °F 77% 30.47 in 10.0 mi Calm Calm - N/A   Clear
9:53 AM 25.0 °F 20.7 °F 16.0 °F 69% 30.45 in 10.0 mi NNW 3.5 mph - N/A   Clear
10:53 AM 30.0 °F 24.1 °F 16.0 °F 56% 30.41 in 10.0 mi NW 5.8 mph - N/A   Clear
11:53 AM 33.1 °F - 16.0 °F 50% 30.38 in 10.0 mi Calm Calm - N/A   Clear
12:53 PM 37.0 °F 29.3 °F 16.0 °F 42% 30.35 in 10.0 mi West 11.5 mph - N/A   Clear
1:53 PM 37.9 °F 29.2 °F 15.1 °F 39% 30.32 in 10.0 mi West 15.0 mph - N/A   Clear
2:53 PM 37.0 °F 27.0 °F 14.0 °F 39% 30.35 in 10.0 mi WNW 18.4 mph 25.3 mph N/A   Clear
3:53 PM 33.1 °F 23.9 °F 15.1 °F 48% 30.37 in 10.0 mi WNW 12.7 mph - N/A   Clear
4:53 PM 28.9 °F 25.2 °F 15.1 °F 56% 30.42 in 10.0 mi NW 3.5 mph - N/A   Clear
5:53 PM 26.1 °F - 15.1 °F 63% 30.44 in 10.0 mi Calm Calm - N/A   Clear
6:53 PM 25.0 °F 19.3 °F 14.0 °F 63% 30.48 in 10.0 mi NNW 4.6 mph - N/A   Clear
7:53 PM 21.0 °F 14.6 °F 14.0 °F 74% 30.51 in 10.0 mi North 4.6 mph - N/A   Clear
8:53 PM 21.9 °F 13.4 °F 14.0 °F 72% 30.48 in 10.0 mi NNW 6.9 mph - N/A   Clear
9:53 PM 21.9 °F 14.5 °F 14.0 °F 72% 30.45 in 10.0 mi NNW 5.8 mph - N/A   Clear
10:53 PM 19.0 °F 11.1 °F 12.0 °F 74% 30.45 in 10.0 mi NW 5.8 mph - N/A   Clear
11:53 PM 18.0 °F 12.7 °F 12.0 °F 78% 30.43 in 10.0 mi WSW 3.5 mph - N/A   Clear